Location: Vienna
(38.9012°N, 77.2653°W)
Time: 15:38:53
(UTC-05:00)

ISS - Visible Passes

Search period start: 20 January 2018 00:00
Search period end: 30 January 2018 00:00
Orbit: 402 x 407 km, 51.6° (Epoch: 21 January)

Date Brightness Start Highest point End Pass type
(mag) Time Alt. Az. Time Alt. Az. Time Alt. Az.
22 Jan -1.1 19:20:20 10° SSW 19:20:48 13° SSW 19:20:48 13° SSW visible
23 Jan -1.8 18:29:07 10° SSE 18:31:05 15° SE 18:31:11 15° SE visible
24 Jan -3.1 19:11:41 10° SW 19:14:09 49° SW 19:14:09 49° SW visible
25 Jan -3.1 18:19:38 10° SSW 18:22:41 38° SE 18:24:21 21° E visible
25 Jan -0.5 19:56:28 10° W 19:57:01 13° W 19:57:01 13° W visible
26 Jan -2.9 19:03:39 10° WSW 19:06:46 41° NNW 19:07:08 39° NNW visible
27 Jan -3.8 18:11:07 10° SW 18:14:21 79° NW 18:17:08 14° NE visible
27 Jan -0.7 19:49:14 10° WNW 19:49:48 12° NW 19:49:48 12° NW visible
28 Jan -1.9 18:56:05 10° W 18:58:41 22° NNW 18:59:44 19° N visible
29 Jan -2.5 18:03:08 10° W 18:06:09 34° NNW 18:09:10 10° NE visible
